DW2047 Weather Reports


time (UTC)temp
C
wind
direction
speed
KPH
gust
KPH
rain 1hr
cm
rain 24hr
cm
rain mn
cm
humidity
%
barometer
mb
20260902124515 23 130 0.0 0.0 0.00 0.00 0.00 87 1014.5
20260902124056 23 130 0.0 0.0 0.00 0.00 0.00 87 1014.5
20260902123533 23 130 0.0 0.0 0.00 0.00 0.00 87 1014.5
20260902123044 23 130 0.0 0.0 0.00 0.00 0.00 87 1014.5
20260902122521 23 130 0.0 0.0 0.00 0.00 0.00 86 1014.5
20260902122103 23 130 0.0 0.0 0.00 0.00 0.00 86 1014.5
20260902121508 23 130 0.0 0.0 0.00 0.00 0.00 86 1014.5
20260902121049 23 130 0.0 0.0 0.00 0.00 0.00 86 1014.5
20260902120526 23 130 0.0 0.0 0.00 0.00 0.00 86 1014.4
20260902120040 23 130 0.0 0.0 0.00 0.00 0.00 85 1014.5
20260902115513 23 130 0.0 0.0 0.00 0.00 0.00 85 1014.5
20260902115054 23 130 0.0 0.0 0.00 0.00 0.00 85 1014.5
20260902114501 23 130 0.0 0.0 0.00 0.00 0.00 85 1014.5
20260902114041 23 130 0.0 0.0 0.00 0.00 0.00 84 1014.4
20260902113515 23 130 0.0 0.0 0.00 0.00 0.00 84 1014.4
20260902113026 23 130 0.0 0.0 0.00 0.00 0.00 84 1014.2
20260902112503 24 130 0.0 0.0 0.00 0.00 0.00 84 1014.1
20260902112044 24 130 0.0 0.0 0.00 0.00 0.00 84 1014.1
20260902111555 24 130 0.0 0.0 0.00 0.00 0.00 84 1014.1
20260902111031 24 130 0.0 0.0 0.00 0.00 0.00 84 1014.0
20260902110508 24 130 0.0 0.0 0.00 0.00 0.00 85 1014.0
20260902110020 23 130 0.0 0.0 0.00 0.00 0.00 85 1014.0
20260902105601 23 130 0.0 0.0 0.00 0.00 0.00 85 1014.0
20260902105037 23 130 0.0 0.0 0.00 0.00 0.00 86 1013.9
20260902104555 23 130 0.0 0.0 0.00 0.00 0.00 86 1014.0
20260902104025 23 130 0.0 3.2 0.00 0.00 0.00 86 1014.0
20260902103501 23 130 0.0 3.2 0.00 0.00 0.00 86 1014.0
20260902103012 23 130 0.0 1.6 0.00 0.00 0.00 86 1014.0
20260902102557 23 130 0.0 0.0 0.00 0.00 0.00 86 1014.0
20260902102030 23 130 0.0 0.0 0.00 0.00 0.00 86 1014.0
20260902101545 23 130 0.0 0.0 0.00 0.00 0.00 86 1014.0
20260902101019 23 130 0.0 0.0 0.00 0.00 0.00 86 1014.0
20260902100559 23 130 0.0 0.0 0.00 0.00 0.00 85 1014.1
20260902100004 23 130 0.0 0.0 0.00 0.00 0.00 85 1014.2
20260902095549 23 130 0.0 0.0 0.00 0.00 0.00 85 1014.2
20260902095022 23 130 0.0 0.0 0.00 0.00 0.00 84 1014.2
20260902094533 24 130 0.0 0.0 0.00 0.00 0.00 84 1014.3
20260902094012 24 130 0.0 0.0 0.00 0.00 0.00 84 1014.2
20260902093551 24 130 0.0 0.0 0.00 0.00 0.00 84 1014.2
20260902093104 24 130 0.0 0.0 0.00 0.00 0.00 84 1014.2
20260902092540 24 130 0.0 0.0 0.00 0.00 0.00 84 1014.3
20260902092015 24 130 0.0 0.0 0.00 0.00 0.00 84 1014.3
20260902091554 24 130 0.0 0.0 0.00 0.00 0.00 83 1014.2
20260902091003 24 130 0.0 0.0 0.00 0.00 0.00 82 1014.3
20260902090544 24 130 0.0 0.0 0.00 0.00 0.00 82 1014.4
20260902085532 25 130 0.0 0.0 0.00 0.00 0.00 81 1014.3
20260902085008 25 130 0.0 0.0 0.00 0.00 0.00 81 1014.3
20260902084519 25 130 0.0 0.0 0.00 0.00 0.00 81 1014.3
20260902084100 25 130 0.0 0.0 0.00 0.00 0.00 80 1014.3
20260902083537 25 130 0.0 0.0 0.00 0.00 0.00 80 1014.3
20260902083048 25 130 0.0 3.2 0.00 0.00 0.00 80 1014.3
20260902082524 25 130 0.0 3.2 0.00 0.00 0.00 80 1014.3
20260902082105 25 130 0.0 3.2 0.00 0.00 0.00 79 1014.4
20260902081515 25 130 0.0 3.2 0.00 0.00 0.00 80 1014.3
20260902081053 25 130 0.0 3.2 0.00 0.00 0.00 79 1014.4
20260902080529 25 130 0.0 4.8 0.00 0.00 0.00 80 1014.5
20260902080055 25 130 1.6 4.8 0.00 0.00 0.00 79 1014.4
20260902075516 25 130 0.0 4.8 0.00 0.00 0.00 79 1014.5
20260902075058 25 130 1.6 4.8 0.00 0.00 0.00 79 1014.5
20260902074504 25 130 1.6 4.8 0.00 0.00 0.00 79 1014.5
20260902074048 25 130 1.6 3.2 0.00 0.00 0.00 79 1014.5
20260902073522 25 130 0.0 1.6 0.00 0.00 0.00 78 1014.5
20260902073034 26 130 0.0 1.6 0.00 0.00 0.00 77 1014.5
20260902072509 26 130 0.0 1.6 0.00 0.00 0.00 77 1014.6
20260902072050 26 130 0.0 1.6 0.00 0.00 0.00 77 1014.5
20260902071628 26 130 0.0 1.6 0.00 0.00 0.00 77 1014.6
20260902071038 26 130 0.0 3.2 0.00 0.00 0.00 76 1014.7
20260902070514 26 130 0.0 3.2 0.00 0.00 0.00 76 1014.7
20260902070025 26 130 0.0 3.2 0.00 0.00 0.00 76 1014.7
20260902065502 26 130 0.0 4.8 0.00 0.00 0.00 75 1014.7
20260902065043 26 130 0.0 4.8 0.00 0.00 0.00 75 1014.7
20260902064556 26 130 0.0 4.8 0.00 0.00 0.00 75 1014.8
20260902064030 26 130 0.0 4.8 0.00 0.00 0.00 75 1014.8
20260902063507 26 130 0.0 1.6 0.00 0.00 0.00 74 1014.9
20260902063025 26 130 0.0 1.6 0.00 0.00 0.00 73 1014.8
20260902062558 26 130 0.0 3.2 0.00 0.00 0.00 73 1014.8
20260902062035 26 130 1.6 3.2 0.00 0.00 0.00 73 1014.8
20260902061603 26 130 0.0 3.2 0.00 0.00 0.00 72 1014.9
20260902061024 26 130 0.0 3.2 0.00 0.00 0.00 72 1014.9
20260902060605 26 130 0.0 3.2 0.00 0.00 0.00 71 1015.0
20260902060020 27 130 0.0 4.8 0.00 0.00 0.00 70 1014.9
20260902055556 27 130 0.0 4.8 0.00 0.00 0.00 69 1014.8
20260902055029 27 130 0.0 1.6 0.00 0.00 0.00 68 1014.8
20260902054545 27 130 0.0 3.2 0.00 0.00 0.00 68 1014.7
20260902054016 27 130 0.0 3.2 0.00 0.00 0.00 68 1014.6
20260902053558 27 130 1.6 3.2 0.00 0.00 0.00 69 1014.6
20260902053005 27 130 0.0 4.8 0.00 0.00 0.00 68 1014.5
20260902052546 27 130 1.6 4.8 0.00 0.00 0.00 67 1014.5
20260902052022 27 130 1.6 6.4 0.00 0.00 0.00 67 1014.5
20260902051533 27 130 3.2 6.4 0.00 0.00 0.00 66 1014.5
20260902051012 28 130 3.2 6.4 0.00 0.00 0.00 66 1014.5
20260902050553 28 130 1.6 6.4 0.00 0.00 0.00 65 1014.4
20260902050112 28 116 1.6 6.4 0.00 0.00 0.00 65 1014.5
20260902045539 28 103 0.0 4.8 0.00 0.00 0.00 65 1014.6
20260902045016 28 105 0.0 4.8 0.00 0.00 0.00 65 1014.6
20260902044530 28 92 0.0 3.2 0.00 0.00 0.00 65 1014.5
20260902044004 28 88 0.0 3.2 0.00 0.00 0.00 66 1014.6
20260902043548 28 88 0.0 4.8 0.00 0.00 0.00 66 1014.6
20260902043057 27 70 1.6 9.7 0.00 0.00 0.00 67 1014.6
20260902042533 27 67 1.6 9.7 0.00 0.00 0.00 68 1014.5
20260902042012 27 123 0.0 0.0 0.00 0.00 0.00 68 1014.5
20260902041531 27 123 0.0 0.0 0.00 0.00 0.00 67 1014.5
20260902041105 28 123 0.0 0.0 0.00 0.00 0.00 67 1014.3
20260902040538 28 123 0.0 0.0 0.00 0.00 0.00 66 1014.3
20260902040050 28 123 0.0 0.0 0.00 0.00 0.00 66 1014.4
20260902035528 28 123 0.0 0.0 0.00 0.00 0.00 65 1014.3
20260902035005 28 123 0.0 0.0 0.00 0.00 0.00 64 1014.3
20260902034518 28 123 0.0 0.0 0.00 0.00 0.00 64 1014.2
20260902034103 28 123 0.0 0.0 0.00 0.00 0.00 63 1014.2
20260902033537 28 123 0.0 0.0 0.00 0.00 0.00 63 1014.1
20260902033047 29 123 0.0 0.0 0.00 0.00 0.00 63 1014.0
20260902032528 29 123 0.0 0.0 0.00 0.00 0.00 62 1014.0
20260902032004 29 123 0.0 0.0 0.00 0.00 0.00 61 1013.9
20260902031516 29 123 0.0 0.0 0.00 0.00 0.00 61 1013.9
20260902031059 29 123 0.0 0.0 0.00 0.00 0.00 60 1013.7
20260902030540 30 123 0.0 0.0 0.00 0.00 0.00 60 1013.7
20260902030049 30 123 0.0 0.0 0.00 0.00 0.00 60 1013.6
20260902025527 30 123 0.0 0.0 0.00 0.00 0.00 59 1013.5
20260902025005 30 123 0.0 0.0 0.00 0.00 0.00 58 1013.3
20260902024514 30 123 0.0 0.0 0.00 0.00 0.00 58 1013.2
20260902024055 30 123 0.0 0.0 0.00 0.00 0.00 57 1013.1
20260902023532 30 123 0.0 0.0 0.00 0.00 0.00 56 1013.0
20260902023043 30 123 0.0 0.0 0.00 0.00 0.00 56 1012.9
20260902022519 31 123 0.0 0.0 0.00 0.00 0.00 55 1012.8
20260902022101 31 123 0.0 0.0 0.00 0.00 0.00 55 1012.9
20260902021506 31 123 0.0 0.0 0.00 0.00 0.00 54 1012.7
20260902021047 31 123 0.0 0.0 0.00 0.00 0.00 54 1012.6
20260902020524 31 123 0.0 0.0 0.00 0.00 0.00 53 1012.5
20260902020035 31 123 0.0 1.6 0.00 0.00 0.00 53 1012.5
20260902015508 31 123 0.0 1.6 0.00 0.00 0.00 52 1012.4
20260902015049 32 123 0.0 1.6 0.00 0.00 0.00 52 1012.4
20260902014601 32 123 0.0 3.2 0.00 0.00 0.00 51 1012.4
20260902014037 32 123 0.0 3.2 0.00 0.00 0.00 50 1012.3
20260902013513 32 123 0.0 3.2 0.00 0.00 0.00 50 1012.3
20260902013025 32 123 0.0 4.8 0.00 0.00 0.00 49 1012.3
20260902012501 32 123 0.0 4.8 0.00 0.00 0.00 49 1012.2
20260902012042 33 123 0.0 3.2 0.00 0.00 0.00 48 1012.2
20260902011559 33 123 0.0 6.4 0.00 0.00 0.00 48 1012.1
20260902011030 33 123 1.6 6.4 0.00 0.00 0.00 47 1012.0
20260902010505 33 123 1.6 6.4 0.00 0.00 0.00 47 1012.0
20260902010030 33 123 3.2 6.4 0.00 0.00 0.00 47 1012.0
20260902005558 33 123 1.6 8.0 0.00 0.00 0.00 47 1012.0
20260902005033 33 133 3.2 8.0 0.00 0.00 0.00 46 1012.0
20260902004544 34 125 3.2 9.7 0.00 0.00 0.00 45 1012.1
20260902004019 35 126 1.6 8.0 0.00 0.00 0.00 44 1012.1
20260902003600 35 75 1.6 8.0 0.00 0.00 0.00 43 1012.1
20260902003007 35 109 1.6 11.3 0.00 0.00 0.00 42 1012.1
20260902002550 35 115 3.2 11.3 0.00 0.00 0.00 41 1012.2
20260902002024 35 95 1.6 9.7 0.00 0.00 0.00 41 1012.2
20260902001532 36 127 1.6 11.3 0.00 0.00 0.00 40 1012.2
20260902001008 36 80 4.8 11.3 0.00 0.00 0.00 40 1012.2
20260902000550 36 72 3.2 8.0 0.00 0.00 0.00 41 1012.2
20260901235538 36 118 3.2 9.7 0.00 0.00 0.00 41 1012.1
20260901235018 36 70 3.2 12.9 0.00 0.00 0.00 41 1012.1
20260901234525 36 142 3.2 12.9 0.00 0.00 0.00 40 1012.1
20260901234002 36 75 3.2 12.9 0.00 0.00 0.00 40 1012.2
20260901233543 36 63 4.8 12.9 0.00 0.00 0.00 41 1012.2
20260901233101 37 90 3.2 12.9 0.00 0.00 0.00 41 1012.1
20260901232531 37 71 4.8 12.9 0.00 0.00 0.00 41 1012.2
20260901232009 37 80 3.2 16.1 0.00 0.00 0.00 41 1012.1
20260901231519 37 65 3.2 16.1 0.00 0.00 0.00 41 1012.2
20260901231059 37 59 4.8 16.1 0.00 0.00 0.00 40 1012.1
20260901230536 37 107 6.4 17.7 0.00 0.00 0.00 40 1012.1
20260901230048 37 105 4.8 17.7 0.00 0.00 0.00 40 1012.1
20260901225526 37 94 4.8 12.9 0.00 0.00 0.00 40 1012.2
20260901225105 37 53 1.6 9.7 0.00 0.00 0.00 40 1012.2
20260901224512 37 109 1.6 11.3 0.00 0.00 0.00 41 1012.1
20260901224053 37 90 1.6 11.3 0.00 0.00 0.00 40 1012.2
20260901223529 37 86 3.2 14.5 0.00 0.00 0.00 40 1012.2
20260901223050 37 36 3.2 14.5 0.00 0.00 0.00 40 1012.2
20260901222516 37 117 4.8 14.5 0.00 0.00 0.00 42 1012.2
20260901222058 37 93 0.0 11.3 0.00 0.00 0.00 42 1012.2
20260901221504 37 138 4.8 11.3 0.00 0.00 0.00 39 1012.2
20260901221046 37 211 1.6 14.5 0.00 0.00 0.00 39 1012.1
20260901220525 37 173 4.8 16.1 0.00 0.00 0.00 39 1012.2
20260901220033 37 138 4.8 16.1 0.00 0.00 0.00 39 1012.3
20260901215511 37 140 1.6 12.9 0.00 0.00 0.00 40 1012.3
20260901215054 36 70 3.2 12.9 0.00 0.00 0.00 42 1012.3
20260901214501 36 63 3.2 14.5 0.00 0.00 0.00 42 1012.4
20260901214043 36 134 4.8 14.5 0.00 0.00 0.00 40 1012.3
20260901213520 37 32 3.2 11.3 0.00 0.00 0.00 40 1012.3
20260901213039 37 119 3.2 14.5 0.00 0.00 0.00 39 1012.4
20260901212507 37 67 3.2 14.5 0.00 0.00 0.00 39 1012.4
20260901212048 37 80 6.4 14.5 0.00 0.00 0.00 40 1012.4
20260901211600 37 59 3.2 8.0 0.00 0.00 0.00 39 1012.4
20260901211035 37 152 3.2 16.1 0.00 0.00 0.00 39 1012.6
20260901210512 37 132 3.2 17.7 0.00 0.00 0.00 41 1012.6
20260901210034 37 121 8.0 17.7 0.00 0.00 0.00 40 1012.7
20260901205602 36 136 4.8 16.1 0.00 0.00 0.00 40 1012.8
20260901205039 37 146 4.8 16.1 0.00 0.00 0.00 39 1012.8
20260901204550 37 144 6.4 16.1 0.00 0.00 0.00 40 1012.9
20260901204029 37 117 6.4 16.1 0.00 0.00 0.00 41 1012.9
20260901203507 37 132 8.0 14.5 0.00 0.00 0.00 39 1012.8
20260901203020 37 63 4.8 17.7 0.00 0.00 0.00 41 1013.0
20260901202559 37 122 9.7 17.7 0.00 0.00 0.00 40 1013.1
20260901202040 37 224 1.6 12.9 0.00 0.00 0.00 41 1013.1
20260901201552 37 88 1.6 16.1 0.00 0.00 0.00 40 1013.3
20260901201029 37 122 6.4 16.1 0.00 0.00 0.00 41 1013.4
20260901200505 37 72 4.8 19.3 0.00 0.00 0.00 43 1013.5
20260901200037 37 153 4.8 19.3 0.00 0.00 0.00 43 1013.5
20260901195558 36 344 1.6 14.5 0.00 0.00 0.00 43 1013.5
20260901195035 36 87 6.4 14.5 0.00 0.00 0.00 42 1013.7
20260901194556 36 135 4.8 14.5 0.00 0.00 0.00 42 1013.7
20260901194022 36 136 3.2 14.5 0.00 0.00 0.00 42 1013.9
20260901193603 37 130 6.4 19.3 0.00 0.00 0.00 43 1013.8
20260901193010 37 64 3.2 9.7 0.00 0.00 0.00 44 1013.9
20260901192550 36 281 1.6 9.7 0.00 0.00 0.00 44 1014.0
20260901192027 36 169 4.8 11.3 0.00 0.00 0.00 43 1014.1
20260901191538 36 93 4.8 16.1 0.00 0.00 0.00 44 1014.2
20260901191020 36 109 6.4 24.1 0.00 0.00 0.00 45 1014.2
20260901190555 36 138 4.8 24.1 0.00 0.00 0.00 43 1014.3
20260901190002 36 115 3.2 12.9 0.00 0.00 0.00 46 1014.3
20260901185542 36 84 3.2 8.0 0.00 0.00 0.00 45 1014.4
20260901185016 36 261 3.2 9.7 0.00 0.00 0.00 44 1014.5
20260901184528 36 146 4.8 12.9 0.00 0.00 0.00 47 1014.6
20260901184004 36 137 1.6 12.9 0.00 0.00 0.00 46 1014.7
20260901183547 36 248 3.2 8.0 0.00 0.00 0.00 45 1014.7
20260901183055 36 360 1.6 12.9 0.00 0.00 0.00 46 1014.9
20260901182533 35 350 3.2 12.9 0.00 0.00 0.00 46 1015.0
20260901182008 35 136 3.2 16.1 0.00 0.00 0.00 47 1015.0
20260901181522 35 161 6.4 17.7 0.00 0.00 0.00 48 1015.1
20260901181100 35 117 6.4 16.1 0.00 0.00 0.00 46 1015.2
20260901180538 35 162 8.0 14.5 0.00 0.00 0.00 47 1015.2
20260901180047 35 71 4.8 12.9 0.00 0.00 0.00 50 1015.2
20260901175524 35 72 1.6 8.0 0.00 0.00 0.00 47 1015.4
20260901175101 34 71 3.2 11.3 0.00 0.00 0.00 49 1015.4
20260901174508 34 105 4.8 11.3 0.00 0.00 0.00 48 1015.5
20260901174049 34 145 4.8 14.5 0.00 0.00 0.00 51 1015.6
20260901173526 34 134 4.8 12.9 0.00 0.00 0.00 50 1015.6
20260901173038 33 250 1.6 16.1 0.00 0.00 0.00 52 1015.8
20260901172514 34 122 8.0 16.1 0.00 0.00 0.00 49 1015.8
20260901172055 34 132 3.2 11.3 0.00 0.00 0.00 53 1015.9
20260901171502 33 68 3.2 14.5 0.00 0.00 0.00 53 1016.0
20260901171045 33 117 4.8 14.5 0.00 0.00 0.00 51 1016.1
20260901170526 33 146 3.2 14.5 0.00 0.00 0.00 50 1016.1
20260901170112 33 40 1.6 9.7 0.00 0.00 0.00 52 1016.2
20260901165516 33 69 3.2 12.9 0.00 0.00 0.00 54 1016.1
20260901165100 33 103 4.8 12.9 0.00 0.00 0.00 54 1016.1
20260901164513 33 59 3.2 8.0 0.00 0.00 0.00 54 1016.1
20260901164051 32 71 3.2 9.7 0.00 0.00 0.00 57 1016.3
20260901163530 32 48 4.8 11.3 0.00 0.00 0.00 56 1016.3
20260901163044 32 153 3.2 11.3 0.00 0.00 0.00 57 1016.4
20260901162518 32 138 1.6 12.9 0.00 0.00 0.00 58 1016.5
20260901162101 32 145 3.2 12.9 0.00 0.00 0.00 56 1016.6
20260901161513 32 223 1.6 12.9 0.00 0.00 0.00 56 1016.6
20260901161053 32 158 3.2 12.9 0.00 0.00 0.00 56 1016.6
20260901160533 32 170 4.8 11.3 0.00 0.00 0.00 56 1016.6
20260901160104 32 176 1.6 6.4 0.00 0.00 0.00 59 1016.7
20260901155543 31 240 1.6 4.8 0.00 0.00 0.00 60 1016.7
20260901155025 31 210 1.6 8.0 0.00 0.00 0.00 61 1016.6
20260901154532 31 142 1.6 6.4 0.00 0.00 0.00 60 1016.6
20260901154008 31 142 1.6 8.0 0.00 0.00 0.00 61 1016.5
20260901153550 31 142 3.2 8.0 0.00 0.00 0.00 62 1016.5
20260901153124 31 142 0.0 8.0 0.00 0.00 0.00 63 1016.4
20260901152537 30 142 1.6 8.0 0.00 0.00 0.00 63 1016.5
20260901152015 30 219 1.6 4.8 0.00 0.00 0.00 63 1016.4
20260901151525 30 219 0.0 4.8 0.00 0.00 0.00 64 1016.5
20260901151002 30 220 1.6 4.8 0.00 0.00 0.00 66 1016.5
20260901150546 30 225 0.0 3.2 0.00 0.00 0.00 69 1016.5
20260901150054 29 225 0.0 6.4 0.00 0.00 0.00 69 1016.6
20260901145530 29 225 0.0 6.4 0.00 0.00 0.00 70 1016.7
20260901145007 28 236 1.6 6.4 0.00 0.00 0.00 72 1016.7
20260901144519 28 170 3.2 6.4 0.00 0.00 0.00 73 1016.6
20260901144102 28 246 0.0 3.2 0.00 0.00 0.00 75 1016.7
20260901143541 28 246 0.0 4.8 0.00 0.00 0.00 77 1016.7
20260901143055 27 246 1.6 6.4 0.00 0.00 0.00 78 1016.7
20260901142534 27 246 1.6 6.4 0.00 0.00 0.00 79 1016.8
20260901142012 27 242 1.6 6.4 0.00 0.00 0.00 81 1016.8
20260901141534 27 242 0.0 6.4 0.00 0.00 0.00 82 1016.8
20260901141001 26 242 3.2 6.4 0.00 0.00 0.00 83 1016.9
20260901140543 26 241 0.0 6.4 0.00 0.00 0.00 84 1016.9
20260901140054 26 239 1.6 6.4 0.00 0.00 0.00 86 1016.9
20260901135531 25 178 0.0 3.2 0.00 0.00 0.00 87 1016.9
20260901135008 25 154 0.0 1.6 0.00 0.00 0.00 89 1016.9
20260901134519 25 153 0.0 3.2 0.00 0.00 0.00 89 1016.8
20260901134059 24 153 0.0 3.2 0.00 0.00 0.00 89 1016.8
20260901133537 24 153 0.0 3.2 0.00 0.00 0.00 90 1016.9
20260901133047 23 153 0.0 1.6 0.00 0.00 0.00 90 1016.8
20260901132524 23 153 0.0 3.2 0.00 0.00 0.00 90 1016.8
20260901132106 23 153 0.0 3.2 0.00 0.00 0.00 90 1016.8
20260901131519 23 153 0.0 1.6 0.00 0.00 0.00 90 1016.7
20260901131053 23 153 0.0 0.0 0.00 0.00 0.00 90 1016.6
20260901130530 23 153 0.0 0.0 0.00 0.00 0.00 90 1016.5
20260901130055 23 153 0.0 0.0 0.00 0.00 0.00 90 1016.4
20260901125517 23 153 0.0 0.0 0.00 0.00 0.00 90 1016.3
20260901125058 22 153 0.0 0.0 0.00 0.00 0.00 90 1016.2